TimeMST,TemperatureF,Dew PointF,Humidity,Sea Level PressureIn,VisibilityMPH,Wind Direction,Wind SpeedMPH,Gust SpeedMPH,PrecipitationIn,Events,Conditions,WindDirDegrees,DateUTC
12:15 AM,5.0,3.2,92,29.95,10.0,Calm,Calm,-,N/A,,Clear,0,2012-12-31 07:15:00
12:55 AM,6.8,6.8,100,29.96,10.0,Calm,Calm,-,N/A,,Clear,0,2012-12-31 07:55:00
1:15 AM,6.8,3.2,85,29.96,10.0,Calm,Calm,-,N/A,,Clear,0,2012-12-31 08:15:00
1:35 AM,8.6,6.8,92,29.95,10.0,South,3.5,-,N/A,,Clear,190,2012-12-31 08:35:00
1:55 AM,6.8,1.4,79,29.95,10.0,Calm,Calm,-,N/A,,Clear,0,2012-12-31 08:55:00
2:15 AM,6.8,3.2,85,29.95,10.0,Calm,Calm,-,N/A,,Clear,0,2012-12-31 09:15:00
2:35 AM,6.8,3.2,85,29.95,10.0,Calm,Calm,-,N/A,,Clear,0,2012-12-31 09:35:00
2:55 AM,5.0,1.4,85,29.96,10.0,Calm,Calm,-,N/A,,Clear,0,2012-12-31 09:55:00
3:15 AM,3.2,-0.4,85,29.95,10.0,South,3.5,-,N/A,,Clear,180,2012-12-31 10:15:00
3:35 AM,8.6,5.0,85,29.96,10.0,Calm,Calm,-,N/A,,Clear,0,2012-12-31 10:35:00
3:55 AM,5.0,-0.4,78,29.95,10.0,Calm,Calm,-,N/A,,Clear,0,2012-12-31 10:55:00
4:35 AM,6.8,3.2,85,29.95,10.0,Calm,Calm,-,N/A,,Clear,0,2012-12-31 11:35:00
4:55 AM,3.2,-0.4,85,29.94,10.0,Calm,Calm,-,N/A,,Clear,0,2012-12-31 11:55:00
5:55 AM,3.2,1.4,92,29.95,10.0,WSW,3.5,-,N/A,,Clear,250,2012-12-31 12:55:00
6:15 AM,5.0,-0.4,78,29.95,10.0,Calm,Calm,-,N/A,,Clear,0,2012-12-31 13:15:00
6:35 AM,5.0,-0.4,78,29.95,10.0,SSW,4.6,-,N/A,,Clear,200,2012-12-31 13:35:00
6:55 AM,5.0,1.4,85,29.95,10.0,Calm,Calm,-,N/A,,Clear,0,2012-12-31 13:55:00
7:15 AM,3.2,-0.4,85,29.96,10.0,Calm,Calm,-,N/A,,Clear,0,2012-12-31 14:15:00
7:35 AM,5.0,-2.2,72,29.97,10.0,Calm,Calm,-,N/A,,Clear,0,2012-12-31 14:35:00
8:15 AM,6.8,6.8,100,29.97,10.0,South,4.6,-,N/A,,Clear,190,2012-12-31 15:15:00
8:35 AM,5.0,-2.2,72,29.97,10.0,South,6.9,-,N/A,,Clear,170,2012-12-31 15:35:00
8:55 AM,6.8,3.2,85,29.98,10.0,South,6.9,-,N/A,,Clear,170,2012-12-31 15:55:00
9:15 AM,8.6,3.2,79,29.98,10.0,SSE,6.9,-,N/A,,Clear,160,2012-12-31 16:15:00
9:35 AM,10.4,5.0,79,29.98,10.0,South,6.9,-,N/A,,Clear,170,2012-12-31 16:35:00
9:55 AM,15.8,6.8,68,29.98,10.0,South,9.2,-,N/A,,Clear,190,2012-12-31 16:55:00
10:15 AM,17.6,6.8,63,29.98,10.0,WSW,6.9,-,N/A,,Clear,240,2012-12-31 17:15:00
10:35 AM,15.8,5.0,62,29.98,10.0,NNE,3.5,-,N/A,,Clear,30,2012-12-31 17:35:00
10:55 AM,21.2,8.6,58,29.97,10.0,SW,6.9,-,N/A,,Clear,230,2012-12-31 17:55:00
11:15 AM,24.8,6.8,46,29.95,10.0,SW,11.5,-,N/A,,Clear,230,2012-12-31 18:15:00
11:35 AM,24.8,8.6,50,29.94,10.0,SW,12.7,18.4,N/A,,Clear,220,2012-12-31 18:35:00
12:15 PM,24.8,8.6,50,29.93,10.0,SSW,10.4,-,N/A,,Clear,210,2012-12-31 19:15:00
12:35 PM,24.8,8.6,50,29.92,10.0,NNE,9.2,-,N/A,,Clear,30,2012-12-31 19:35:00
12:55 PM,17.6,8.6,68,29.93,10.0,NE,11.5,-,N/A,,Clear,40,2012-12-31 19:55:00
1:15 PM,15.8,10.4,79,29.93,10.0,NNE,6.9,-,N/A,,Clear,30,2012-12-31 20:15:00
1:35 PM,15.8,8.6,73,29.93,10.0,NE,9.2,-,N/A,,Clear,40,2012-12-31 20:35:00
1:55 PM,15.8,8.6,73,29.93,10.0,NE,8.1,-,N/A,,Clear,50,2012-12-31 20:55:00
2:15 PM,15.8,8.6,73,29.94,10.0,NE,8.1,-,N/A,,Clear,40,2012-12-31 21:15:00
2:35 PM,15.8,8.6,73,29.93,10.0,NE,6.9,-,N/A,,Clear,50,2012-12-31 21:35:00
2:55 PM,15.8,8.6,73,29.94,10.0,NE,5.8,-,N/A,,Clear,50,2012-12-31 21:55:00
3:35 PM,15.8,8.6,73,29.95,10.0,Calm,Calm,-,N/A,,Clear,0,2012-12-31 22:35:00
3:55 PM,15.8,8.6,73,29.96,10.0,Calm,Calm,-,N/A,,Clear,0,2012-12-31 22:55:00
4:15 PM,14.0,8.6,79,29.97,10.0,Calm,Calm,-,N/A,,Clear,0,2012-12-31 23:15:00
4:35 PM,15.8,8.6,73,29.98,10.0,NE,4.6,-,N/A,,Clear,50,2012-12-31 23:35:00
4:55 PM,12.2,5.0,73,29.97,10.0,Calm,Calm,-,N/A,,Clear,0,2012-12-31 23:55:00
6:15 PM,8.6,5.0,85,29.98,10.0,Calm,Calm,-,N/A,,Clear,0,2013-01-01 01:15:00
6:35 PM,6.8,3.2,85,29.98,10.0,Calm,Calm,-,N/A,,Clear,0,2013-01-01 01:35:00
6:55 PM,6.8,3.2,85,29.97,10.0,South,5.8,-,N/A,,Clear,170,2013-01-01 01:55:00
7:15 PM,8.6,5.0,85,29.96,10.0,SSE,5.8,-,N/A,,Partly Cloudy,160,2013-01-01 02:15:00
7:35 PM,12.2,10.4,92,29.97,10.0,NE,5.8,-,N/A,,Mostly Cloudy,40,2013-01-01 02:35:00
7:55 PM,17.6,10.4,73,29.97,10.0,SSE,3.5,-,N/A,,Overcast,160,2013-01-01 02:55:00
8:15 PM,17.6,6.8,63,29.97,10.0,South,4.6,-,N/A,,Overcast,190,2013-01-01 03:15:00
8:35 PM,12.2,5.0,73,29.98,10.0,West,3.5,-,N/A,,Overcast,280,2013-01-01 03:35:00
8:55 PM,12.2,6.8,79,29.99,10.0,Calm,Calm,-,N/A,,Overcast,0,2013-01-01 03:55:00
9:15 PM,12.2,8.6,85,29.99,10.0,Calm,Calm,-,N/A,,Overcast,0,2013-01-01 04:15:00
9:35 PM,12.2,8.6,85,30.00,10.0,Calm,Calm,-,N/A,,Overcast,0,2013-01-01 04:35:00
9:55 PM,12.2,8.6,85,30.01,10.0,Calm,Calm,-,N/A,,Overcast,0,2013-01-01 04:55:00
10:15 PM,14.0,8.6,79,30.00,10.0,South,5.8,-,N/A,,Overcast,180,2013-01-01 05:15:00
10:35 PM,14.0,10.4,86,30.02,10.0,Calm,Calm,-,N/A,,Overcast,0,2013-01-01 05:35:00
11:15 PM,15.8,10.4,79,30.03,10.0,South,4.6,-,N/A,,Overcast,180,2013-01-01 06:15:00
11:35 PM,15.8,10.4,79,30.02,10.0,South,3.5,-,N/A,,Overcast,180,2013-01-01 06:35:00
11:55 PM,15.8,10.4,79,30.03,10.0,NNE,3.5,-,N/A,,Overcast,30,2013-01-01 06:55:00